Skagway, AK

6:02 PM AKDT on September 26, 2016 (GMT -0800)
Skagway

Weather History for PAGY - February, 2013

Change the Weather History Date:

Friday, February 1, 2013

  Actual Average Record
Temperature  
Mean Temperature 33 °F -  
Max Temperature 34 °F 30 °F 48 °F (1998)
Min Temperature 32 °F 22 °F -10 °F (1968)
Degree Days  
Heating Degree Days 32    
Moisture  
Dew Point 31 °F    
Average Humidity 93    
Maximum Humidity 100    
Minimum Humidity 87    
Precipitation  
Precipitation 0.05 in - - ()
Sea Level Pressure  
Sea Level Pressure 30.14 in    
Wind  
Wind Speed 1 mph (NE)    
Max Wind Speed 4 mph    
Max Gust Speed -    
Visibility 3 miles    
Events Rain , Snow    
Averages and records for this station are not official NWS values.
T = Trace of Precipitation, MM = Missing Value Source: NWS Daily Summary

Daily Weather History Graph

Daily Weather History Graph

Search for Another Location

Airport or City:

Trip Planner

Search our weather history database for the weather conditions in past years. The results will help you decide how hot, cold, wet, or windy it might be!

Date:

Astronomy

Feb. 01, 2013 Rise Set
Actual Time 8:11 AM AKST 4:19 PM AKST
Civil Twilight 7:24 AM AKST 5:05 PM AKST
Nautical Twilight 6:35 AM AKST 5:55 PM AKST
Astronomical Twilight 5:47 AM AKST 6:43 PM AKST
Moon No Moon Rise 9:09 AM AKST (2/1)
Length of Visible Light 9h 41m
Length of Day
8h 08m
Waning Gibbous, 69% of the Moon is Illuminated
Feb 1
Waning Gibbous
Feb 3
Last Quarter
Feb 9
New
Feb 17
First Quarter
Feb 25
Full

Hourly Weather History & Observations

Time (AKST) Temp. Windchill Dew Point Humidity Pressure Visibility Wind Dir Wind Speed Gust Speed Precip Events Conditions
12:53 AM 32.0 °F - 30.0 °F 92% 30.12 in 4.0 mi Calm Calm - N/A   Overcast
1:53 AM 32.0 °F 28.7 °F 30.0 °F 92% 30.14 in 4.0 mi NNE 3.5 mph - N/A   Overcast
2:28 AM 32.0 °F - 30.2 °F 93% 30.14 in 3.0 mi Calm Calm - 0.00 in Rain Light Freezing Rain
3:53 AM 32.0 °F - 30.9 °F 96% 30.14 in 4.0 mi Calm Calm - 0.00 in Rain Light Freezing Rain
4:25 AM 32.0 °F 28.7 °F 30.2 °F 93% 30.14 in 3.0 mi NE 3.5 mph - 0.00 in Rain Light Freezing Rain
4:53 AM 32.0 °F - 30.9 °F 96% 30.14 in 2.5 mi Calm Calm - 0.00 in Rain Light Freezing Rain
5:04 AM 32.0 °F - 30.2 °F 93% 30.14 in 3.0 mi Calm Calm - 0.00 in Rain Light Freezing Rain
5:21 AM 32.0 °F - 30.2 °F 93% 30.14 in 2.5 mi Calm Calm - 0.00 in Rain Light Freezing Rain
5:30 AM 32.0 °F - 30.2 °F 93% 30.15 in 2.5 mi Calm Calm - 0.00 in Rain Light Freezing Rain
5:46 AM 32.0 °F - 30.2 °F 93% 30.14 in 1.8 mi Calm Calm - 0.00 in Rain Light Freezing Rain
5:53 AM 32.0 °F - 30.9 °F 96% 30.15 in 1.8 mi Calm Calm - 0.00 in Rain Light Freezing Rain
6:01 AM 32.0 °F - 30.2 °F 93% 30.15 in 2.5 mi Calm Calm - 0.00 in Rain Light Freezing Rain
6:15 AM 32.0 °F - 30.2 °F 93% 30.15 in 3.0 mi Calm Calm - 0.00 in Rain Light Freezing Rain
6:22 AM 32.0 °F - 30.2 °F 93% 30.15 in 2.0 mi Calm Calm - 0.00 in Rain Light Freezing Rain
6:30 AM 32.0 °F - 30.2 °F 93% 30.14 in 1.5 mi Calm Calm - 0.00 in Rain Light Freezing Rain
6:48 AM 32.0 °F - 30.2 °F 93% 30.15 in 2.0 mi Calm Calm - 0.00 in Rain Light Freezing Rain
6:53 AM 32.0 °F - 30.9 °F 96% 30.15 in 2.0 mi Calm Calm - 0.00 in Rain Light Freezing Rain
7:03 AM 32.0 °F - 32.0 °F 100% 30.15 in 1.5 mi Calm Calm - 0.00 in Rain Light Freezing Rain
7:13 AM 32.0 °F - 30.2 °F 93% 30.15 in 1.2 mi Calm Calm - 0.00 in Rain Light Freezing Rain
7:25 AM 32.0 °F - 30.2 °F 93% 30.15 in 2.0 mi Calm Calm - 0.00 in Rain Light Freezing Rain
8:28 AM 32.0 °F - 30.2 °F 93% 30.16 in 2.5 mi Calm Calm - 0.00 in Rain Light Freezing Rain
8:37 AM 32.0 °F - 30.2 °F 93% 30.16 in 3.0 mi Calm Calm - 0.00 in Rain Light Freezing Rain
8:49 AM 32.0 °F - 30.2 °F 93% 30.17 in 1.8 mi Calm Calm - 0.00 in Rain Light Freezing Rain
8:53 AM 32.0 °F - 30.0 °F 92% 30.17 in 1.2 mi Calm Calm - 0.00 in Rain Light Freezing Rain
9:02 AM 32.0 °F 28.7 °F 30.2 °F 93% 30.17 in 1.2 mi NE 3.5 mph - 0.00 in Rain Light Freezing Rain
9:09 AM 32.0 °F 28.7 °F 30.2 °F 93% 30.17 in 2.0 mi NNE 3.5 mph - 0.00 in Rain Light Freezing Rain
9:12 AM 32.0 °F 28.7 °F 30.2 °F 93% 30.17 in 2.5 mi NE 3.5 mph - 0.00 in Rain Light Freezing Rain
9:19 AM 32.0 °F - 30.2 °F 93% 30.17 in 3.0 mi Calm Calm - 0.00 in Rain Light Freezing Rain
9:39 AM 32.0 °F - 30.2 °F 93% 30.17 in 5.0 mi Calm Calm - 0.00 in Rain Light Freezing Rain
9:53 AM 32.0 °F - 30.9 °F 96% 30.17 in 5.0 mi Calm Calm - 0.00 in   Overcast
10:10 AM 32.0 °F - 32.0 °F 100% 30.17 in 4.0 mi Calm Calm - N/A   Overcast
10:19 AM 32.0 °F - 30.2 °F 93% 30.17 in 5.0 mi Calm Calm - N/A   Overcast
10:39 AM 33.8 °F 30.8 °F 30.2 °F 87% 30.17 in 2.0 mi NE 3.5 mph - N/A   Overcast
10:49 AM 32.0 °F 28.7 °F 30.2 °F 93% 30.17 in 8.0 mi NE 3.5 mph - N/A   Overcast
10:53 AM 32.0 °F 28.7 °F 30.0 °F 92% 30.17 in 9.0 mi NE 3.5 mph - N/A   Overcast
11:19 AM 33.8 °F - 32.0 °F 93% 30.17 in 10.0 mi Calm Calm - N/A   Overcast
11:53 AM 33.1 °F 30.0 °F 32.0 °F 96% 30.17 in 10.0 mi SSW 3.5 mph - N/A   Overcast
12:53 PM 34.0 °F - 30.9 °F 89% 30.17 in 10.0 mi Calm Calm - N/A   Overcast
1:44 PM 33.8 °F - 33.8 °F 100% 30.16 in 9.0 mi Calm Calm - N/A   Overcast
1:53 PM 34.0 °F - 33.1 °F 96% 30.16 in 9.0 mi Calm Calm - N/A   Overcast
2:38 PM 33.8 °F - 33.8 °F 100% 30.16 in 8.0 mi Calm Calm - 0.00 in   Overcast
2:50 PM 33.8 °F - 33.8 °F 100% 30.16 in 7.0 mi Calm Calm - 0.00 in   Overcast
2:53 PM 34.0 °F - 33.1 °F 96% 30.17 in 7.0 mi Calm Calm - 0.00 in   Overcast
3:27 PM 33.8 °F - 33.8 °F 100% 30.16 in 6.0 mi Calm Calm - N/A   Overcast
3:42 PM 33.8 °F - 33.8 °F 100% 30.15 in 4.0 mi Calm Calm - 0.00 in Rain Light Rain
3:53 PM 34.0 °F - 32.0 °F 92% 30.15 in 4.0 mi Calm Calm - 0.00 in Rain Light Rain
4:02 PM 33.8 °F - 30.2 °F 87% 30.15 in 2.5 mi Calm Calm - 0.00 in   Overcast
4:23 PM 33.8 °F - 30.2 °F 87% 30.15 in 4.0 mi Calm Calm - 0.00 in   Overcast
4:40 PM 33.8 °F - 30.2 °F 87% 30.15 in 1.8 mi Calm Calm - 0.00 in   Overcast
4:50 PM 33.8 °F - 30.2 °F 87% 30.14 in 1.2 mi Calm Calm - 0.00 in Rain Light Rain
4:53 PM 33.1 °F - 30.9 °F 92% 30.15 in 1.2 mi Calm Calm - 0.01 in Snow Light Snow
5:05 PM 33.8 °F - 30.2 °F 87% 30.14 in 1.8 mi Calm Calm - 0.00 in Snow Light Snow
5:13 PM 33.8 °F - 30.2 °F 87% 30.14 in 3.0 mi Calm Calm - 0.00 in Snow Light Snow
5:28 PM 33.8 °F - 30.2 °F 87% 30.13 in 2.5 mi Calm Calm - 0.01 in Snow Light Snow
5:34 PM 33.8 °F - 30.2 °F 87% 30.13 in 1.8 mi Calm Calm - 0.01 in Snow Light Snow
5:42 PM 33.8 °F - 30.2 °F 87% 30.13 in 1.2 mi Calm Calm - 0.01 in Snow Light Snow
5:46 PM 32.0 °F - 30.2 °F 93% 30.13 in 2.0 mi Calm Calm - 0.01 in Snow Light Snow
5:53 PM 32.0 °F - 30.0 °F 92% 30.13 in 2.0 mi Calm Calm - 0.01 in Snow Light Snow
6:01 PM 33.8 °F - 30.2 °F 87% 30.13 in 3.0 mi Calm Calm - 0.00 in   Overcast
6:50 PM 32.0 °F - 30.2 °F 93% 30.12 in 2.5 mi Calm Calm - 0.00 in   Overcast
6:53 PM 32.0 °F - 30.9 °F 96% 30.12 in 2.5 mi Calm Calm - 0.00 in   Overcast
7:00 PM 33.8 °F - 30.2 °F 87% 30.12 in 4.0 mi Calm Calm - 0.00 in   Overcast
7:17 PM 32.0 °F - 30.2 °F 93% 30.12 in 5.0 mi Calm Calm - 0.00 in   Overcast
7:20 PM 32.0 °F - 30.2 °F 93% 30.12 in 2.0 mi Calm Calm - 0.00 in   Overcast
7:24 PM 32.0 °F - 30.2 °F 93% 30.12 in 1.2 mi Calm Calm - 0.00 in   Overcast
7:30 PM 32.0 °F - 30.2 °F 93% 30.11 in 2.0 mi Calm Calm - 0.00 in   Overcast
7:46 PM 32.0 °F - 30.2 °F 93% 30.12 in 1.5 mi Calm Calm - 0.00 in   Overcast
7:51 PM 33.8 °F - 30.2 °F 87% 30.12 in 2.5 mi Calm Calm - 0.00 in   Overcast
7:53 PM 33.1 °F - 30.9 °F 92% 30.12 in 3.0 mi Calm Calm - 0.00 in   Overcast
8:24 PM 32.0 °F - 30.2 °F 93% 30.12 in 2.0 mi Calm Calm - 0.00 in Snow Light Snow
8:44 PM 32.0 °F - 30.2 °F 93% 30.12 in 1.8 mi Calm Calm - 0.00 in Snow Light Snow
8:53 PM 32.0 °F - 30.0 °F 92% 30.12 in 1.5 mi Calm Calm - 0.00 in Snow Light Snow
9:01 PM 32.0 °F 28.7 °F 30.2 °F 93% 30.11 in 1.0 mi NNE 3.5 mph - 0.00 in Snow Light Snow
9:10 PM 32.0 °F - 30.2 °F 93% 30.11 in 2.0 mi Calm Calm - 0.00 in Snow Light Snow
9:23 PM 32.0 °F - 30.2 °F 93% 30.12 in 3.0 mi Calm Calm - 0.00 in Snow Light Snow
9:34 PM 33.8 °F - 30.2 °F 87% 30.11 in 2.0 mi Calm Calm - 0.01 in Snow Light Snow
9:43 PM 32.0 °F - 30.2 °F 93% 30.11 in 3.0 mi Calm Calm - 0.01 in Snow Light Snow
9:53 PM 32.0 °F - 30.9 °F 96% 30.11 in 3.0 mi Calm Calm - 0.01 in Snow Light Snow
10:20 PM 32.0 °F - 32.0 °F 100% 30.10 in 2.5 mi Calm Calm - 0.01 in Snow Light Snow
10:22 PM 32.0 °F - 32.0 °F 100% 30.10 in 3.0 mi Calm Calm - 0.01 in Snow Light Snow
10:26 PM 32.0 °F - 32.0 °F 100% 30.10 in 2.5 mi Calm Calm - 0.01 in Snow Light Snow
10:35 PM 32.0 °F - 30.2 °F 93% 30.10 in 2.0 mi Calm Calm - 0.01 in Snow Light Snow
10:53 PM 32.0 °F - 32.0 °F 100% 30.09 in 2.5 mi Calm Calm - 0.01 in Snow Light Snow
11:12 PM 33.8 °F - 32.0 °F 93% 30.09 in 3.0 mi Calm Calm - 0.01 in Snow Light Snow
11:24 PM 32.0 °F - 30.2 °F 93% 30.08 in 2.5 mi Calm Calm - 0.01 in Snow Light Snow
11:41 PM 33.8 °F - 30.2 °F 87% 30.08 in 3.0 mi Calm Calm - 0.01 in Snow Light Snow
11:53 PM 32.0 °F - 30.9 °F 96% 30.08 in 2.5 mi Calm Calm - 0.01 in Snow Light Snow